This demonstration page uses our WeatherBlox Daily Observations layout. Learn more.

Left ArrowRight Arrow

31.84235, -102.49876

Hourly Observations for March 13, 2017

Temp ( °F °C ) Dew Point ( °F °C ) Humidity (%) Winds ( mph kmh ) Pressure ( in mb ) Visibility ( mi km ) Precip ( " mm )
12:53 am 00:53 Clear 51 10.6 46 7.8 83 83 SSW 12 19 29.94 1014 10 16 0.00 0.00
1:53 am 01:53 Clear 52 11.1 46 7.8 80 80 SSW 14 22 29.92 1013 10 16 0.00 0.00
2:53 am 02:53 Clear 51 10.6 47 8.3 86 86 SSW 13 20 29.91 1013 10 16 0.00 0.00
3:53 am 03:53 Clear 51 10.6 47 8.3 86 86 VRB 7 11 29.94 1014 10 16 0.00 0.00
4:53 am 04:53 Clear 49 9.4 45 7.2 86 86 NNW 9 15 29.96 1015 10 16 0.00 0.00
5:53 am 05:53 Clear 48 8.9 41 5 77 77 N 14 22 29.97 1015 10 16 0.00 0.00
6:53 am 06:53 Clear 47 8.3 40 4.4 77 77 NNE 15 24 30.02 1017 10 16 0.00 0.00
7:53 am 07:53 Mostly Clear with Mist and Fog 47 8.3 44 6.7 90 90 NE 16 26 30.07 1018 5 8 0.00 0.00
8:53 am 08:53 Partly Cloudy with Mist and Fog 46 7.8 43 6.1 89 89 ENE 20 31 30.17 1022 3 5 0.00 0.00
9:53 am 09:53 Sunny 48 8.9 43 6.1 83 83 ENE 16 26 30.21 1023 10 16 0.00 0.00
10:53 am 10:53 Sunny 51 10.6 42 5.6 71 71 ENE 17 28 30.24 1024 10 16 0.00 0.00
11:53 am 11:53 Sunny 54 12.2 41 5 62 62 NE 14 22 30.24 1024 10 16 0.00 0.00
12:53 pm 12:53 Sunny 57 13.9 39 3.9 51 51 ENE 14 22 30.24 1024 10 16 0.00 0.00
1:53 pm 13:53 Sunny 60 15.6 38 3.3 44 44 ENE 13 20 30.22 1023 10 16 0.00 0.00
2:53 pm 14:53 Sunny 61 16.1 37 2.8 41 41 ESE 9 15 30.19 1022 10 16 0.00 0.00
3:53 pm 15:53 Sunny 63 17.2 36 2.2 37 37 VRB 5 7 30.16 1021 10 16 0.00 0.00
4:53 pm 16:53 Sunny 64 17.8 37 2.8 37 37 NE 5 7 30.14 1021 10 16 0.00 0.00
5:53 pm 17:53 Sunny 64 17.8 36 2.2 35 35 E 5 7 30.11 1020 10 16 0.00 0.00
6:53 pm 18:53 Sunny 63 17.2 36 2.2 37 37 SE 3 6 30.12 1020 10 16 0.00 0.00
7:53 pm 19:53 Sunny 62 16.7 37 2.8 40 40 SE 6 9 30.12 1020 10 16 0.00 0.00
8:53 pm 20:53 Clear 58 14.4 39 3.9 50 50 S 6 9 30.14 1021 10 16 0.00 0.00
9:53 pm 21:53 Clear 56 13.3 39 3.9 53 53 SSE 7 11 30.15 1021 10 16 0.00 0.00
10:53 pm 22:53 Clear 53 11.7 39 3.9 59 59 S 7 11 30.15 1021 10 16 0.00 0.00
11:53 pm 23:53 Clear 54 12.2 42 5.6 64 64 SW 3 6 30.16 1021 10 16 0.00 0.00

Powered by AerisWeather